*** The Vicarage Weather Feed ***
Saratoga-Weather Station Historical Data
 
Daily Summary for January 28, 2020 Units:  Metric    English   Both
Daily Weekly Monthly Yearly Custom
  Current: High: Low: Average:
Temperature: 1.7 °C 1.7 °C 0 °C 0.4 °C
Dew Point: -2.2 °C -2.2 °C -3.3 °C -2.7 °C
Humidity: 77% 82% 77% 79%
Wind Speed: 172.2km/h 222.1km/h 0km/h 178.1km/h
Wind Gust: 220.5km/h 223.7km/h - -
WindNorth - - NW
Pressure: 1014.4 hPa 1014.4 hPa 1011.1 hPa -
Precipitation: 0 mm      
Historical Graphs
 
 
Tabular Data for January 28, 2020
Time Temperature Dew Point Pressure Wind Wind Speed Wind Gust Humidity Rainfall Rate (Hourly) solar
00:00 1.1 °C -2.2 °C 1011.1 hPa NW 183.5 km/h 218.9 km/h 79% 0 mm W/m2
00:10 1.1 °C -2.2 °C 1011.4 hPa Calm   218.9 km/h 79% 0 mm W/m2
00:20 1.1 °C -2.2 °C 1011.4 hPa North 218.9 km/h 220.5 km/h 79% 0 mm W/m2
00:30 1.1 °C -2.2 °C 1011.4 hPa NNW 218.9 km/h 220.5 km/h 79% 0 mm W/m2
00:40 1.1 °C -2.2 °C 1011.4 hPa NNW 217.3 km/h 218.9 km/h 79% 0 mm W/m2
00:50 1.1 °C -2.2 °C 1011.4 hPa WNW 222.1 km/h 222.1 km/h 79% 0 mm W/m2
01:00 0.6 °C -2.2 °C 1011.4 hPa NNW 146.4 km/h 222.1 km/h 79% 0 mm W/m2
01:10 0.6 °C -2.2 °C 1011.4 hPa NNW 217.3 km/h 220.5 km/h 79% 0 mm W/m2
01:20 0.6 °C -2.8 °C 1011.7 hPa North 218.9 km/h 220.5 km/h 79% 0 mm W/m2
01:30 0.6 °C -2.8 °C 1011.7 hPa WNW 220.5 km/h 222.1 km/h 79% 0 mm W/m2
01:40 0.6 °C -2.8 °C 1011.7 hPa North 218.9 km/h 220.5 km/h 79% 0 mm W/m2
01:50 0.6 °C -2.8 °C 1011.7 hPa North 218.9 km/h 220.5 km/h 79% 0 mm W/m2
02:00 0.6 °C -2.8 °C 1011.7 hPa NW 218.9 km/h 220.5 km/h 79% 0 mm W/m2
02:10 0.6 °C -2.8 °C 1011.7 hPa North 218.9 km/h 220.5 km/h 78% 0 mm W/m2
02:20 0.6 °C -2.8 °C 1012.1 hPa Calm   218.9 km/h 78% 0 mm W/m2
02:30 0.6 °C -2.8 °C 1012.1 hPa Calm   220.5 km/h 78% 0 mm W/m2
02:40 0.6 °C -2.8 °C 1012.1 hPa Calm   218.9 km/h 78% 0 mm W/m2
02:50 0.6 °C -2.8 °C 1012.1 hPa WNW 220.5 km/h 220.5 km/h 78% 0 mm W/m2
03:00 0.6 °C -2.8 °C 1012.1 hPa NW 218.9 km/h 220.5 km/h 78% 0 mm W/m2
03:10 0.6 °C -2.8 °C 1012.1 hPa North 218.9 km/h 220.5 km/h 78% 0 mm W/m2
03:20 0.6 °C -2.8 °C 1012.1 hPa North 218.9 km/h 218.9 km/h 78% 0 mm W/m2
03:30 0.6 °C -2.8 °C 1012.1 hPa NNW 217.3 km/h 222.1 km/h 78% 0 mm W/m2
03:40 0.6 °C -2.8 °C 1012.1 hPa NW 218.9 km/h 222.1 km/h 78% 0 mm W/m2
03:50 0.6 °C -3.3 °C 1012.1 hPa NNW 217.3 km/h 220.5 km/h 78% 0 mm W/m2
04:00 0.6 °C -2.8 °C 1012.1 hPa North 218.9 km/h 218.9 km/h 78% 0 mm W/m2
04:10 0.6 °C -3.3 °C 1012.1 hPa North 218.9 km/h 222.1 km/h 78% 0 mm W/m2
04:20 0.6 °C -3.3 °C 1012.1 hPa NW 218.9 km/h 222.1 km/h 78% 0 mm W/m2
04:30 0 °C -3.3 °C 1012.1 hPa Calm   220.5 km/h 78% 0 mm W/m2
04:40 0 °C -2.8 °C 1012.1 hPa North 218.9 km/h 220.5 km/h 79% 0 mm W/m2
04:50 0 °C -2.8 °C 1012.1 hPa NW 218.9 km/h 222.1 km/h 79% 0 mm W/m2
05:00 0 °C -2.8 °C 1012.4 hPa NW 220.5 km/h 220.5 km/h 79% 0 mm W/m2
05:10 0 °C -2.8 °C 1012.4 hPa NW 218.9 km/h 223.7 km/h 79% 0 mm W/m2
05:20 0 °C -2.8 °C 1012.4 hPa NNW 217.3 km/h 222.1 km/h 79% 0 mm W/m2
05:30 0 °C -2.8 °C 1012.4 hPa North 218.9 km/h 220.5 km/h 79% 0 mm W/m2
05:40 0 °C -2.8 °C 1012.4 hPa NNW 217.3 km/h 218.9 km/h 79% 0 mm W/m2
05:50 0 °C -2.8 °C 1012.4 hPa NNW 217.3 km/h 218.9 km/h 79% 0 mm W/m2
06:00 0 °C -2.8 °C 1012.4 hPa North 218.9 km/h 220.5 km/h 80% 0 mm W/m2
06:10 0 °C -2.8 °C 1012.4 hPa NW 215.6 km/h 220.5 km/h 80% 0 mm W/m2
06:20 0 °C -2.8 °C 1012.4 hPa NNW 217.3 km/h 222.1 km/h 80% 0 mm W/m2
06:30 0 °C -2.8 °C 1012.8 hPa Calm   222.1 km/h 81% 0 mm W/m2
06:40 0 °C -2.8 °C 1012.8 hPa Calm   222.1 km/h 81% 0 mm W/m2
06:50 0 °C -2.8 °C 1012.8 hPa Calm   218.9 km/h 81% 0 mm W/m2
07:00 0 °C -2.8 °C 1013.1 hPa North 218.9 km/h 220.5 km/h 82% 0 mm W/m2
07:10 0 °C -2.8 °C 1013.1 hPa NNW 217.3 km/h 220.5 km/h 82% 0 mm W/m2
07:20 0 °C -2.8 °C 1013.1 hPa North 218.9 km/h 218.9 km/h 81% 0 mm W/m2
07:30 0 °C -2.8 °C 1013.1 hPa North 218.9 km/h 220.5 km/h 81% 0 mm W/m2
07:40 0 °C -2.8 °C 1013.1 hPa Calm   220.5 km/h 82% 0 mm W/m2
07:50 0 °C -2.8 °C 1013.4 hPa NNW 185.1 km/h 220.5 km/h 82% 0 mm W/m2
08:00 0 °C -2.8 °C 1013.4 hPa Calm   218.9 km/h 82% 0 mm W/m2
08:10 0 °C -2.8 °C 1013.8 hPa North 218.9 km/h 220.5 km/h 82% 0 mm W/m2
08:20 0 °C -2.8 °C 1013.8 hPa North 218.9 km/h 218.9 km/h 82% 0 mm W/m2
08:30 0 °C -2.8 °C 1013.8 hPa North 218.9 km/h 220.5 km/h 82% 0 mm W/m2
08:40 0 °C -2.8 °C 1014.1 hPa NNW 159.3 km/h 220.5 km/h 81% 0 mm W/m2
08:50 0 °C -2.8 °C 1014.1 hPa North 218.9 km/h 220.5 km/h 81% 0 mm W/m2
09:00 0 °C -2.8 °C 1014.1 hPa North 218.9 km/h 220.5 km/h 81% 0 mm W/m2
09:10 0 °C -2.8 °C 1014.1 hPa North 218.9 km/h 220.5 km/h 81% 0 mm W/m2
09:20 0 °C -2.8 °C 1014.1 hPa NNE 130.4 km/h 220.5 km/h 80% 0 mm W/m2
09:30 0 °C -2.8 °C 1014.1 hPa North 218.9 km/h 222.1 km/h 80% 0 mm W/m2
09:40 0 °C -2.8 °C 1014.4 hPa NNE 218.9 km/h 222.1 km/h 79% 0 mm W/m2
09:50 0 °C -2.8 °C 1014.4 hPa North 183.5 km/h 218.9 km/h 79% 0 mm W/m2
10:00 0.6 °C -2.8 °C 1014.4 hPa North 183.5 km/h 218.9 km/h 79% 0 mm W/m2
10:10 0.6 °C -2.8 °C 1014.4 hPa NW 186.7 km/h 220.5 km/h 79% 0 mm W/m2
10:20 0.6 °C -2.8 °C 1014.4 hPa NNE 220.5 km/h 220.5 km/h 78% 0 mm W/m2
10:30 1.1 °C -2.2 °C 1014.4 hPa North 199.6 km/h 220.5 km/h 78% 0 mm W/m2
10:40 1.1 °C -2.8 °C 1014.4 hPa NW 177 km/h 218.9 km/h 77% 0 mm W/m2
10:50 1.1 °C -2.2 °C 1014.4 hPa NW 185.1 km/h 218.9 km/h 78% 0 mm W/m2
11:00 1.1 °C -2.2 °C 1014.4 hPa North 180.2 km/h 220.5 km/h 77% 0 mm W/m2
11:10 1.7 °C -2.2 °C 1014.4 hPa North 172.2 km/h 220.5 km/h 77% 0 mm W/m2
Juneau County Weather
Compliments of Weather Underground - 2.75 mb
This data is offered only as a general guide to local weather conditions. It should not be relied upon in lieu of officially disseminated weather information for determining possible risk to persons or property. This site, including all information contained therein, is made available as is without warranties of any kind, either express or implied. The Vicarage Weather Feed© includes links to other sites for user convenience only. The content of any linked third-party site is not controlled by The Vicarage Weather Feed©. Access to any third-party website through The Vicarage Weather Feed©, regardless of whether or not the third-party site is a linked site, is entirely at the users own risk. Externally sourced content or material is excluded from The Vicarage Weather Feed© copyright and is the copyright and property of the respective provider. Skywarn® and the Skywarn® logo are registered trademarks of the National Oceanic and Atmospheric Administration, used with permission.